Simultaneous Nadir Overpasses (SNOs) Predictions

Prediction of SNOs between LANDSAT-8 and NOAA-19 Satellite Orbit:

Table of predicted SNOs for the next 14.0 days since TLE Epoch: 4/29/2023
Index Date (LANDSAT-8) Time (LANDSAT-8) Lat,Lon (LANDSAT-8) SZA (LANDSAT-8 ) Date (NOAA-19) Time (NOAA-19) Lat,Lon (NOAA-19) SZA (NOAA-19 ) Distance(km) Time Diff (sec)
1 05/01/2023 05:52:08 80.95, 128.79 67.86 05/01/2023 05:51:01 80.94, 128.72 67.82 1.62 67
2 05/01/2023 06:41:35 -80.95, -63.61 112.16 05/01/2023 06:42:05 -80.94, -63.74 112.17 2.43 30
3 05/03/2023 12:15:18 80.93, 32.68 67.14 05/03/2023 12:14:34 80.94, 32.73 67.14 1.69 44
4 05/03/2023 13:04:44 -80.95,-159.35 112.82 05/03/2023 13:05:37 -80.94,-159.30 112.80 1.40 53
5 05/05/2023 18:38:26 80.95, -62.84 66.54 05/05/2023 18:38:06 80.94, -62.94 66.52 1.86 20
6 05/08/2023 01:01:35 80.93,-158.83 65.88 05/08/2023 01:01:38 80.94,-158.65 65.91 3.19 3
7 05/10/2023 06:35:17 -80.94, -62.20 114.70 05/10/2023 06:34:17 -80.94, -62.10 114.72 1.63 60
8 05/10/2023 07:24:43 80.94, 105.42 65.29 05/10/2023 07:25:10 80.94, 105.58 65.32 2.90 27
9 05/12/2023 12:58:25 -80.93,-158.05 115.29 05/12/2023 12:57:49 -80.94,-157.95 115.29 1.77 36



Historial Predications of SNOs between LANDSAT-8 and NOAA-19
